Location: ???? ?????
(30.0052°N, 31.2891°E)
Time: 22:33:35
(UTC+00:00)

DELTA 2 DEB (DPAF) - Pass Details

Date: 26 May 2022
Orbit: 635 x 640 km, 98.4° (Epoch: 04 July)

Event Time Altitude Azimuth Distance (km) Brightness Sun altitude
Rises 01:55:18 0° 171° (S) 2,928 7.3 -12.3°
Reaches altitude 10° 01:57:30 10° 174° (S) 2,022 6.4 -11.9°
Maximum altitude 02:01:54 71° 258° (WSW) 678 4.1 -11.1°
Drops below altitude 10° 02:06:19 10° 343° (NNW) 2,031 6.9 -10.3°
Sets 02:08:32 0° 345° (NNW) 2,942 7.8 -9.9°
